Overcast
Overcast
Overcast
Overcast with light rain
Overcast with light rain
Overcast with light rain
Overcast with light rain
(°C)
10°
10°
10°
10°
(°C)
SE
WNW
NW
NW
NW
NW
NNW
(km/h)
2-6
4-7
5-13
6-22
7-27
8-26
8-25
(mm)
0
0
0
0.1
0.6
0.5
0.3
(%)
28
33
58
58
58
59
60

Sun elevation

/ 21.4°
sun-icon
UV 2
05:38
19:23
Waxing gibbous moon (153°)
17:01
04:39

METAR for Niš (LYNI)

Time Conditions Temperature/
Dewpoint
Wind Visibility Weather Clouds Pressure Change Raw
VFR 8°C / 6°C variable 0kt 9700m - Scattered Clouds 5000ft 1011 No Significant change LYNI 210530Z 00000KT 9999 SCT050 08/06 Q1011 NOSIG
VFR 8°C / 5°C variable 0kt 9700m - Few Clouds 5000ft 1011 No Significant change LYNI 210500Z 00000KT 9999 FEW050 08/05 Q1011 NOSIG
VFR 8°C / 4°C 310º 2kt 9700m - Few Clouds 5000ft 1011 No Significant change LYNI 210430Z 31002KT 9999 FEW050 08/04 Q1011 NOSIG
VFR 8°C / 4°C 310º 2kt 9700m Light Rain 1.00mm precipitation Few Clouds 5000ft 1011 No Significant change LYNI 210400Z 31002KT 9999 -RA FEW050 08/04 Q1011 NOSIG
VFR 9°C / 3°C 1kt 9700m - Few Clouds 5000ft 1011 No Significant change LYNI 210330Z VRB01KT 9999 FEW050 09/03 Q1011 NOSIG
VFR 9°C / 3°C 1kt 9700m - Clouds and Visibility OK 1011 No Significant change LYNI 210300Z VRB01KT CAVOK 09/03 Q1011 NOSIG
VFR 9°C / 3°C 1kt 9700m - Clouds and Visibility OK 1011 No Significant change LYNI 210230Z VRB01KT CAVOK 09/03 Q1011 NOSIG
VFR 10°C / 2°C 340º 5kt 9700m - Clouds and Visibility OK 1011 No Significant change LYNI 210200Z 34005KT CAVOK 10/02 Q1011 NOSIG
VFR 10°C / 2°C 340º 8kt 9700m - Clouds and Visibility OK 1011 No Significant change LYNI 210130Z 34008KT CAVOK 10/02 Q1011 NOSIG
VFR 10°C / 2°C 340º 8kt 9700m - Clouds and Visibility OK 1011 No Significant change LYNI 210100Z 34008KT CAVOK 10/02 Q1011 NOSIG
VFR 10°C / 2°C 350º variable 310º to 030º 3kt 9700m - Clouds and Visibility OK 1011 No Significant change LYNI 210030Z 35003KT 310V030 CAVOK 10/02 Q1011 NOSIG
VFR 11°C / 2°C 1kt 9700m - Clouds and Visibility OK 1011 No Significant change LYNI 210000Z VRB01KT CAVOK 11/02 Q1011 NOSIG
VFR 11°C / 3°C 2kt 9700m - Clouds and Visibility OK 1011 No Significant change LYNI 202330Z VRB02KT CAVOK 11/03 Q1011 NOSIG
VFR 11°C / 4°C 2kt 9700m - Few Clouds 5000ft 1011 No Significant change LYNI 202300Z VRB02KT 9999 FEW050 11/04 Q1011 NOSIG
VFR 11°C / 4°C 1kt 9700m - Few Clouds 5000ft 1011 No Significant change LYNI 202230Z VRB01KT 9999 FEW050 11/04 Q1011 NOSIG
VFR 12°C / 2°C 330º 4kt 9700m - Few Clouds 5000ft 1011 No Significant change LYNI 202200Z 33004KT 9999 FEW050 12/02 Q1011 NOSIG
VFR 11°C / 3°C 340º 6kt 9700m - Few Clouds 5000ft 1010 No Significant change LYNI 202130Z 34006KT 9999 FEW050 11/03 Q1010 NOSIG
VFR 11°C / 3°C 10º variable 290º to 060º 3kt 9700m - Clouds and Visibility OK 1010 No Significant change LYNI 202100Z 01003KT 290V060 CAVOK 11/03 Q1010 NOSIG
VFR 12°C / 2°C 60º 7kt 9700m - Clouds and Visibility OK 1010 No Significant change LYNI 202030Z 06007KT CAVOK 12/02 Q1010 NOSIG
VFR 12°C / 2°C 2kt 9700m - Clouds and Visibility OK 1010 No Significant change LYNI 202000Z VRB02KT CAVOK 12/02 Q1010 NOSIG
VFR 13°C / 2°C 350º 6kt 9700m - Clouds and Visibility OK 1010 No Significant change LYNI 201930Z 35006KT CAVOK 13/02 Q1010 NOSIG
VFR 13°C / 2°C 320º 7kt 9700m - Clouds and Visibility OK 1009 No Significant change LYNI 201900Z 32007KT CAVOK 13/02 Q1009 NOSIG
VFR 12°C / 3°C 320º variable 300º to 020º 6kt 9700m - Clouds and Visibility OK 1009 No Significant change LYNI 201830Z 32006KT 300V020 CAVOK 12/03 Q1009 NOSIG
VFR 13°C / 3°C 40º 5kt 9700m - Few Clouds 6000ft 1009 No Significant change LYNI 201800Z 04005KT 9999 FEW060 13/03 Q1009 NOSIG

VFR

8°C / 6°C

[More]
Wind variable 0kt
Visibility 9700m
Weather -
Clouds Scattered Clouds 5000ft
Pressure 1011
Change No Significant change
Raw LYNI 210530Z 00000KT 9999 SCT050 08/06 Q1011 NOSIG

VFR

8°C / 5°C

[More]
Wind variable 0kt
Visibility 9700m
Weather -
Clouds Few Clouds 5000ft
Pressure 1011
Change No Significant change
Raw LYNI 210500Z 00000KT 9999 FEW050 08/05 Q1011 NOSIG

VFR

8°C / 4°C

[More]
Wind 310º 2kt
Visibility 9700m
Weather -
Clouds Few Clouds 5000ft
Pressure 1011
Change No Significant change
Raw LYNI 210430Z 31002KT 9999 FEW050 08/04 Q1011 NOSIG

VFR

8°C / 4°C

[More]
Wind 310º 2kt
Visibility 9700m
Weather Light Rain 1.00mm precipitation
Clouds Few Clouds 5000ft
Pressure 1011
Change No Significant change
Raw LYNI 210400Z 31002KT 9999 -RA FEW050 08/04 Q1011 NOSIG

VFR

9°C / 3°C

[More]
Wind 1kt
Visibility 9700m
Weather -
Clouds Few Clouds 5000ft
Pressure 1011
Change No Significant change
Raw LYNI 210330Z VRB01KT 9999 FEW050 09/03 Q1011 NOSIG

VFR

9°C / 3°C

[More]
Wind 1kt
Visibility 9700m
Weather -
Clouds Clouds and Visibility OK
Pressure 1011
Change No Significant change
Raw LYNI 210300Z VRB01KT CAVOK 09/03 Q1011 NOSIG

VFR

9°C / 3°C

[More]
Wind 1kt
Visibility 9700m
Weather -
Clouds Clouds and Visibility OK
Pressure 1011
Change No Significant change
Raw LYNI 210230Z VRB01KT CAVOK 09/03 Q1011 NOSIG

VFR

10°C / 2°C

[More]
Wind 340º 5kt
Visibility 9700m
Weather -
Clouds Clouds and Visibility OK
Pressure 1011
Change No Significant change
Raw LYNI 210200Z 34005KT CAVOK 10/02 Q1011 NOSIG

VFR

10°C / 2°C

[More]
Wind 340º 8kt
Visibility 9700m
Weather -
Clouds Clouds and Visibility OK
Pressure 1011
Change No Significant change
Raw LYNI 210130Z 34008KT CAVOK 10/02 Q1011 NOSIG

VFR

10°C / 2°C

[More]
Wind 340º 8kt
Visibility 9700m
Weather -
Clouds Clouds and Visibility OK
Pressure 1011
Change No Significant change
Raw LYNI 210100Z 34008KT CAVOK 10/02 Q1011 NOSIG

VFR

10°C / 2°C

[More]
Wind 350º variable 310º to 030º 3kt
Visibility 9700m
Weather -
Clouds Clouds and Visibility OK
Pressure 1011
Change No Significant change
Raw LYNI 210030Z 35003KT 310V030 CAVOK 10/02 Q1011 NOSIG

VFR

11°C / 2°C

[More]
Wind 1kt
Visibility 9700m
Weather -
Clouds Clouds and Visibility OK
Pressure 1011
Change No Significant change
Raw LYNI 210000Z VRB01KT CAVOK 11/02 Q1011 NOSIG

VFR

11°C / 3°C

[More]
Wind 2kt
Visibility 9700m
Weather -
Clouds Clouds and Visibility OK
Pressure 1011
Change No Significant change
Raw LYNI 202330Z VRB02KT CAVOK 11/03 Q1011 NOSIG

VFR

11°C / 4°C

[More]
Wind 2kt
Visibility 9700m
Weather -
Clouds Few Clouds 5000ft
Pressure 1011
Change No Significant change
Raw LYNI 202300Z VRB02KT 9999 FEW050 11/04 Q1011 NOSIG

VFR

11°C / 4°C

[More]
Wind 1kt
Visibility 9700m
Weather -
Clouds Few Clouds 5000ft
Pressure 1011
Change No Significant change
Raw LYNI 202230Z VRB01KT 9999 FEW050 11/04 Q1011 NOSIG

VFR

12°C / 2°C

[More]
Wind 330º 4kt
Visibility 9700m
Weather -
Clouds Few Clouds 5000ft
Pressure 1011
Change No Significant change
Raw LYNI 202200Z 33004KT 9999 FEW050 12/02 Q1011 NOSIG

VFR

11°C / 3°C

[More]
Wind 340º 6kt
Visibility 9700m
Weather -
Clouds Few Clouds 5000ft
Pressure 1010
Change No Significant change
Raw LYNI 202130Z 34006KT 9999 FEW050 11/03 Q1010 NOSIG

VFR

11°C / 3°C

[More]
Wind 10º variable 290º to 060º 3kt
Visibility 9700m
Weather -
Clouds Clouds and Visibility OK
Pressure 1010
Change No Significant change
Raw LYNI 202100Z 01003KT 290V060 CAVOK 11/03 Q1010 NOSIG

VFR

12°C / 2°C

[More]
Wind 60º 7kt
Visibility 9700m
Weather -
Clouds Clouds and Visibility OK
Pressure 1010
Change No Significant change
Raw LYNI 202030Z 06007KT CAVOK 12/02 Q1010 NOSIG

VFR

12°C / 2°C

[More]
Wind 2kt
Visibility 9700m
Weather -
Clouds Clouds and Visibility OK
Pressure 1010
Change No Significant change
Raw LYNI 202000Z VRB02KT CAVOK 12/02 Q1010 NOSIG

VFR

13°C / 2°C

[More]
Wind 350º 6kt
Visibility 9700m
Weather -
Clouds Clouds and Visibility OK
Pressure 1010
Change No Significant change
Raw LYNI 201930Z 35006KT CAVOK 13/02 Q1010 NOSIG

VFR

13°C / 2°C

[More]
Wind 320º 7kt
Visibility 9700m
Weather -
Clouds Clouds and Visibility OK
Pressure 1009
Change No Significant change
Raw LYNI 201900Z 32007KT CAVOK 13/02 Q1009 NOSIG

VFR

12°C / 3°C

[More]
Wind 320º variable 300º to 020º 6kt
Visibility 9700m
Weather -
Clouds Clouds and Visibility OK
Pressure 1009
Change No Significant change
Raw LYNI 201830Z 32006KT 300V020 CAVOK 12/03 Q1009 NOSIG

VFR

13°C / 3°C

[More]
Wind 40º 5kt
Visibility 9700m
Weather -
Clouds Few Clouds 6000ft
Pressure 1009
Change No Significant change
Raw LYNI 201800Z 04005KT 9999 FEW060 13/03 Q1009 NOSIG

TAF for Niš (LYNI)

From till


Maximum Temperature 9ºC on . Minimum Temperature 4ºC on .
From till Wind 320º 8kt. Visibility 9700m. Scattered Clouds 1700ft. Broken Clouds 4000ft.
Temporarly from till Visibility 5000m. Rain . Broken Clouds 1300ft. Broken Clouds 3000ft.

Raw: TAF LYNI 210500Z 2106/2206 32008KT 9999 SCT017 BKN040 TX09/2112Z TN04/2204Z TEMPO 2108/2118 5000 RA BKN013 BKN030

Radar and precipitation nowcast for Niš

Drizzle
Light
Moderate
Heavy
Very Heavy
Hail

The location marker is placed on Niš. This animation shows the precipitation radar for the selected time range, as well as a 2h forecast. Orange crosses indicate lightning. Data provided by nowcast.de (available in USA, Europe, Australia). Drizzle or light snow fall might be invisible for the radar. Precipitation intensity is colour coded, ranging from turquoise to red.

Current satellite and rain images for Niš, Serbia

The location marker is placed on Niš. [More]

The real-time satellite image combines visible light during daytime with infrared radiation during nighttime. At night, the image is not dark as infrared radiation can detect temperature differences. Unfortunately, low clouds and fog are difficult to distinguish from ground temperatures and thus can be almost invisible during the night. Meteosat satellite images for Europe are updated in real-time every 5 minutes. GOES-16/GOES-17 (North & South America) and Himawari (Asia) images update every 10 minutes.

Precipitation is estimated from radar and satellites. Precipitation estimates from satellites are less accurate at night than during daytime.

© 2024 meteoblue, NOAA Satellites GOES-16 and EUMETSAT. Lightning data provided by nowcast.

Back to top
×
Hey there,
seems like you are using an ad blocker.

Advertising is essential to maintain our free website with unique detail and accuracy.

Please whitelist www.meteoblue.com on your ad blocker or consider buying one of our products:

Already have a subscription?
Then please login.